TimeCST,TemperatureF,Dew PointF,Humidity,Sea Level PressureIn,VisibilityMPH,Wind Direction,Wind SpeedMPH,Gust SpeedMPH,PrecipitationIn,Events,Conditions,WindDirDegrees,DateUTC
12:00 AM,35.6,32.0,87,30.08,10.0,WSW,11.5,-,N/A,,Clear,240,2012-11-15 06:00:00
12:20 AM,33.8,32.0,93,30.09,10.0,WSW,9.2,17.3,N/A,,Clear,250,2012-11-15 06:20:00
12:40 AM,33.8,32.0,93,30.09,10.0,West,9.2,-,N/A,,Clear,270,2012-11-15 06:40:00
1:00 AM,33.8,32.0,93,30.09,10.0,West,10.4,-,N/A,,Clear,280,2012-11-15 07:00:00
1:20 AM,32.0,32.0,100,30.09,10.0,West,9.2,-,N/A,,Clear,280,2012-11-15 07:20:00
1:40 AM,32.0,32.0,100,30.09,10.0,West,8.1,-,N/A,,Clear,270,2012-11-15 07:40:00
2:00 AM,32.0,32.0,100,30.11,10.0,West,10.4,-,N/A,,Clear,270,2012-11-15 08:00:00
2:20 AM,32.0,32.0,100,30.12,10.0,WNW,11.5,-,N/A,,Clear,290,2012-11-15 08:20:00
2:40 AM,32.0,32.0,100,30.12,10.0,WNW,10.4,-,N/A,,Clear,290,2012-11-15 08:40:00
3:00 AM,32.0,32.0,100,30.13,10.0,West,8.1,-,N/A,,Clear,280,2012-11-15 09:00:00
3:20 AM,32.0,32.0,100,30.13,10.0,West,9.2,-,N/A,,Clear,280,2012-11-15 09:20:00
3:40 AM,32.0,32.0,100,30.13,10.0,WNW,6.9,-,N/A,,Clear,290,2012-11-15 09:40:00
4:00 AM,28.4,28.4,100,30.13,10.0,WNW,9.2,-,N/A,,Clear,290,2012-11-15 10:00:00
4:20 AM,28.4,28.4,100,30.14,10.0,WNW,10.4,-,N/A,,Clear,290,2012-11-15 10:20:00
4:40 AM,30.2,30.2,100,30.15,10.0,WNW,10.4,-,N/A,,Clear,300,2012-11-15 10:40:00
5:00 AM,30.2,30.2,100,30.16,10.0,WNW,13.8,-,N/A,,Clear,300,2012-11-15 11:00:00
5:20 AM,30.2,30.2,100,30.17,10.0,NW,10.4,-,N/A,,Clear,310,2012-11-15 11:20:00
5:40 AM,30.2,30.2,100,30.18,10.0,NW,10.4,-,N/A,,Clear,320,2012-11-15 11:40:00
6:00 AM,30.2,30.2,100,30.18,10.0,NW,9.2,-,N/A,,Clear,320,2012-11-15 12:00:00
6:20 AM,28.4,28.4,100,30.19,10.0,NW,9.2,-,N/A,,Clear,320,2012-11-15 12:20:00
6:40 AM,28.4,28.4,100,30.20,10.0,NW,9.2,-,N/A,,Clear,320,2012-11-15 12:40:00
7:00 AM,28.4,28.4,100,30.21,10.0,NW,9.2,-,N/A,,Clear,320,2012-11-15 13:00:00
7:20 AM,28.4,28.4,100,30.22,10.0,NW,12.7,-,N/A,,Clear,320,2012-11-15 13:20:00
7:40 AM,28.4,28.4,100,30.24,10.0,NW,10.4,-,N/A,,Clear,320,2012-11-15 13:40:00
8:00 AM,28.4,28.4,100,30.25,10.0,NW,12.7,-,N/A,,Clear,320,2012-11-15 14:00:00
8:20 AM,32.0,32.0,100,30.26,10.0,NNW,10.4,-,N/A,,Clear,330,2012-11-15 14:20:00
8:40 AM,32.0,32.0,100,30.27,10.0,NNW,10.4,-,N/A,,Clear,330,2012-11-15 14:40:00
9:00 AM,33.8,33.8,100,30.28,10.0,NNW,10.4,-,N/A,,Clear,340,2012-11-15 15:00:00
9:20 AM,35.6,35.6,100,30.29,10.0,North,13.8,18.4,N/A,,Clear,360,2012-11-15 15:20:00
9:40 AM,35.6,35.6,100,30.30,10.0,North,11.5,-,N/A,,Clear,360,2012-11-15 15:40:00
10:00 AM,37.4,35.6,93,30.31,10.0,North,11.5,-,N/A,,Clear,350,2012-11-15 16:00:00
10:20 AM,37.4,35.6,93,30.32,10.0,North,13.8,-,N/A,,Clear,10,2012-11-15 16:20:00
10:40 AM,37.4,35.6,93,30.33,10.0,North,12.7,-,N/A,,Clear,350,2012-11-15 16:40:00
11:00 AM,39.2,33.8,81,30.33,10.0,North,12.7,-,N/A,,Clear,350,2012-11-15 17:00:00
11:20 AM,39.2,32.0,75,30.33,10.0,North,10.4,-,N/A,,Clear,350,2012-11-15 17:20:00
11:40 AM,41.0,32.0,70,30.33,10.0,North,13.8,-,N/A,,Clear,10,2012-11-15 17:40:00
12:00 PM,41.0,32.0,70,30.33,10.0,North,11.5,-,N/A,,Clear,350,2012-11-15 18:00:00
12:20 PM,42.8,32.0,66,30.33,10.0,NNW,9.2,-,N/A,,Clear,340,2012-11-15 18:20:00
12:40 PM,42.8,32.0,66,30.33,10.0,North,9.2,-,N/A,,Clear,360,2012-11-15 18:40:00
1:00 PM,44.6,32.0,61,30.34,10.0,North,11.5,-,N/A,,Clear,10,2012-11-15 19:00:00
1:20 PM,44.6,30.2,57,30.34,10.0,NNE,11.5,-,N/A,,Clear,20,2012-11-15 19:20:00
1:40 PM,44.6,28.4,53,30.34,10.0,North,10.4,18.4,N/A,,Clear,360,2012-11-15 19:40:00
2:00 PM,44.6,28.4,53,30.34,10.0,North,10.4,-,N/A,,Clear,360,2012-11-15 20:00:00
2:20 PM,42.8,28.4,57,30.34,10.0,North,11.5,-,N/A,,Clear,360,2012-11-15 20:20:00
2:40 PM,44.6,26.6,49,30.35,10.0,North,13.8,-,N/A,,Clear,360,2012-11-15 20:40:00
3:00 PM,42.8,24.8,49,30.35,10.0,NNE,12.7,-,N/A,,Clear,20,2012-11-15 21:00:00
3:20 PM,42.8,23.0,46,30.36,10.0,North,10.4,-,N/A,,Clear,10,2012-11-15 21:20:00
3:40 PM,41.0,23.0,49,30.37,10.0,NNE,11.5,-,N/A,,Clear,20,2012-11-15 21:40:00
4:00 PM,41.0,24.8,53,30.38,10.0,North,11.5,-,N/A,,Clear,350,2012-11-15 22:00:00
4:20 PM,39.2,23.0,52,30.39,10.0,North,11.5,-,N/A,,Clear,10,2012-11-15 22:20:00
4:40 PM,37.4,23.0,56,30.39,10.0,North,10.4,-,N/A,,Clear,350,2012-11-15 22:40:00
5:00 PM,32.0,21.2,64,30.39,10.0,North,9.2,-,N/A,,Clear,350,2012-11-15 23:00:00
5:20 PM,32.0,19.4,60,30.40,10.0,North,-9999.0,-,N/A,,Clear,0,2012-11-15 23:20:00
5:40 PM,30.2,19.4,64,30.40,10.0,North,5.8,-,N/A,,Clear,10,2012-11-15 23:40:00
6:00 PM,28.4,19.4,69,30.41,10.0,NE,4.6,-,N/A,,Clear,40,2012-11-16 00:00:00
6:20 PM,26.6,19.4,74,30.42,10.0,North,9.2,-,N/A,,Clear,10,2012-11-16 00:20:00
6:40 PM,24.8,19.4,80,30.42,10.0,North,9.2,-,N/A,,Clear,10,2012-11-16 00:40:00
7:00 PM,24.8,19.4,80,30.42,10.0,NNE,8.1,-,N/A,,Clear,20,2012-11-16 01:00:00
7:20 PM,24.8,19.4,80,30.43,10.0,NNE,5.8,-,N/A,,Clear,20,2012-11-16 01:20:00
7:40 PM,23.0,19.4,86,30.42,10.0,NNE,9.2,-,N/A,,Clear,30,2012-11-16 01:40:00
8:20 PM,23.0,19.4,86,30.43,10.0,NE,6.9,-,N/A,,Clear,40,2012-11-16 02:20:00
8:40 PM,23.0,19.4,86,30.43,10.0,NE,5.8,-,N/A,,Clear,40,2012-11-16 02:40:00
9:00 PM,23.0,19.4,86,30.44,10.0,NE,3.5,-,N/A,,Clear,50,2012-11-16 03:00:00
9:20 PM,23.0,19.4,86,30.44,10.0,NE,4.6,-,N/A,,Clear,40,2012-11-16 03:20:00
9:40 PM,21.2,19.4,93,30.44,10.0,Calm,Calm,-,N/A,,Clear,0,2012-11-16 03:40:00
10:00 PM,21.2,19.4,93,30.45,10.0,NNE,3.5,-,N/A,,Clear,30,2012-11-16 04:00:00
10:20 PM,21.2,17.6,86,30.45,10.0,Calm,Calm,-,N/A,,Clear,0,2012-11-16 04:20:00
10:40 PM,21.2,19.4,93,30.45,10.0,Calm,Calm,-,N/A,,Clear,0,2012-11-16 04:40:00
11:00 PM,21.2,19.4,93,30.45,10.0,NE,4.6,-,N/A,,Clear,50,2012-11-16 05:00:00
11:20 PM,19.4,17.6,93,30.45,10.0,NE,3.5,-,N/A,,Clear,40,2012-11-16 05:20:00
11:40 PM,19.4,17.6,93,30.45,10.0,Calm,Calm,-,N/A,,Clear,0,2012-11-16 05:40:00